Starlink 4302

operational
NORAD ID: 53481 Int'l Des: 2022-099 Owner: SPXS Country: US Constellation: starlink
LEOCIRCULARRETROGRADESSO

Über Starlink 4302

Beschreibung wird geladen...

Live-Position

3D-Globus wird geladen...

Nächste Überflüge

Höhenverlauf

Altitude vs Time

uPlot chart will show altitude changes over time

Zweizeiliger Elementsatz

1 53481U 22099S 25259.27435228 -.00000262 00000-0 -15836-4 0 9998
2 53481 97.6024 19.4612 0002488 88.7232 271.4277 15.01258698169816
Epoch: 16. Sept. 2025 • Age: 8 hours

Aktueller Status

Höhe 579.0 km
Geschwindigkeit 7.57 km/s
Subsatellitenpunkt -38.94°S, 174.02°E
Startdatum 12. Aug. 2022
Alter 3 years
Typ internet

Technische Details

Klassifizierung Payload
Masse 300.00 kg
Trockenmasse 275.00 kg
Gesamtmasse 300.00 kg
Länge 0.20 m
Durchmesser 2.80 m
Spannweite 9.00 m
Form Box + pan
Hersteller SPXS
Bus-Typ Starlink
Phasenstatus In Orbit
Besitzer/Staat SPXS/US

Große Konstellationen

Loading constellations...